[Date Prev][Date Next][Thread Prev][Thread Next] - [Date Index][Thread Index][Author Index]

2 LIne ISS Keps 8-11



ISS
1 25544U 98067A   01223.22832382  .00026562  00000-0  34857-3 0  3308
2 25544  51.6393 171.0508 0011657   1.2919 141.3350 15.58270551155673


----
Via the sarex mailing list at AMSAT.ORG courtesy of AMSAT-NA.
To unsubscribe, send "unsubscribe sarex" to Majordomo@amsat.org



AMSAT Top AMSAT Home